TimeCST,TemperatureF,Dew PointF,Humidity,Sea Level PressureIn,VisibilityMPH,Wind Direction,Wind SpeedMPH,Gust SpeedMPH,PrecipitationIn,Events,Conditions,WindDirDegrees,DateUTC
12:53 AM,34.0,30.9,89,30.06,10.0,ENE,3.5,-,N/A,,Clear,70,2014-02-22 06:53:00
1:53 AM,34.0,28.9,82,30.05,10.0,East,4.6,-,0.00,Snow,Light Snow,90,2014-02-22 07:53:00
2:53 AM,34.0,28.9,82,30.05,10.0,Calm,Calm,-,0.00,,Clear,0,2014-02-22 08:53:00
3:53 AM,33.1,30.0,89,30.04,10.0,East,3.5,-,N/A,,Clear,90,2014-02-22 09:53:00
4:53 AM,32.0,28.9,88,30.03,10.0,ENE,3.5,-,N/A,,Clear,70,2014-02-22 10:53:00
5:53 AM,30.9,28.0,89,30.04,10.0,Calm,Calm,-,N/A,,Clear,0,2014-02-22 11:53:00
6:53 AM,30.0,28.0,92,30.04,10.0,East,4.6,-,N/A,,Clear,80,2014-02-22 12:53:00
7:41 AM,32.0,30.0,92,30.05,9.0,Calm,Calm,-,0.00,,Partly Cloudy,0,2014-02-22 13:41:00
7:53 AM,34.0,30.0,85,30.05,10.0,Calm,Calm,-,0.00,,Clear,0,2014-02-22 13:53:00
8:53 AM,44.1,34.0,68,30.05,10.0,Calm,Calm,-,N/A,,Clear,0,2014-02-22 14:53:00
9:53 AM,54.0,32.0,43,30.04,10.0,Calm,Calm,-,N/A,,Clear,0,2014-02-22 15:53:00
10:53 AM,60.1,32.0,35,30.01,10.0,Variable,3.5,-,N/A,,Clear,0,2014-02-22 16:53:00
11:53 AM,66.0,33.1,29,29.97,10.0,South,10.4,-,N/A,,Clear,180,2014-02-22 17:53:00
12:53 PM,70.0,30.9,24,29.93,10.0,South,11.5,19.6,N/A,,Clear,180,2014-02-22 18:53:00
1:53 PM,71.1,28.0,20,29.88,10.0,South,11.5,20.7,N/A,,Clear,170,2014-02-22 19:53:00
2:53 PM,73.0,28.0,19,29.85,10.0,SSE,10.4,-,N/A,,Clear,160,2014-02-22 20:53:00
3:53 PM,73.0,26.1,17,29.83,10.0,SSW,13.8,-,N/A,,Clear,200,2014-02-22 21:53:00
4:53 PM,72.0,25.0,17,29.82,10.0,South,8.1,-,N/A,,Clear,190,2014-02-22 22:53:00
5:53 PM,69.1,24.1,18,29.83,10.0,SSW,8.1,-,N/A,,Clear,210,2014-02-22 23:53:00
6:53 PM,61.0,28.9,30,29.85,10.0,SSE,3.5,-,N/A,,Clear,150,2014-02-23 00:53:00
7:53 PM,57.9,32.0,37,29.87,10.0,SE,5.8,-,N/A,,Clear,140,2014-02-23 01:53:00
8:53 PM,46.0,37.0,71,29.88,10.0,Calm,Calm,-,N/A,,Clear,0,2014-02-23 02:53:00
9:53 PM,43.0,36.0,76,29.90,10.0,Calm,Calm,-,N/A,,Clear,0,2014-02-23 03:53:00
10:53 PM,43.0,36.0,76,29.91,9.0,Calm,Calm,-,N/A,,Clear,0,2014-02-23 04:53:00
11:53 PM,41.0,36.0,82,29.91,10.0,Calm,Calm,-,N/A,,Clear,0,2014-02-23 05:53:00